| time (UTC) | temp F | wind direction | speed MPH | gust MPH | rain 1hr in | rain 24hr in | rain mn in | humidity % | barometer mb |
| 20260508140945 | 67 | 279 | 0.0 | 1.0 | 0.00 | 0.00 | 0.00 | 95 | 1016.9 |
| 20260508140442 | 66 | 328 | 0.0 | 1.0 | 0.00 | 0.00 | 0.00 | 96 | 1016.6 |
| 20260508135937 | 66 | 326 | 1.0 | 2.0 | 0.00 | 0.00 | 0.00 | 96 | 1016.9 |
| 20260508135434 | 66 | 311 | 0.0 | 1.0 | 0.00 | 0.00 | 0.00 | 98 | 1016.4 |
| 20260508134931 | 65 | 333 | 0.0 | 1.0 | 0.00 | 0.00 | 0.00 | 98 | 1016.5 |
| 20260508134427 | 65 | 327 | 0.0 | 1.0 | 0.00 | 0.00 | 0.00 | 98 | 1016.8 |
| 20260508133924 | 64 | 298 | 0.0 | 0.0 | 0.00 | 0.00 | 0.00 | 98 | 1016.9 |
| 20260508133422 | 64 | 222 | 2.0 | 2.0 | 0.00 | 0.00 | 0.00 | 98 | 1017.0 |
| 20260508132918 | 64 | 301 | 0.0 | 0.0 | 0.00 | 0.00 | 0.00 | 99 | 1017.0 |
| 20260508132416 | 64 | 321 | 1.0 | 1.0 | 0.00 | 0.00 | 0.00 | 98 | 1017.0 |
| 20260508131913 | 64 | 321 | 0.0 | 1.0 | 0.00 | 0.00 | 0.00 | 99 | 1017.2 |
| 20260508131408 | 64 | 342 | 3.0 | 3.0 | 0.00 | 0.00 | 0.00 | 99 | 1017.3 |
| 20260508130905 | 64 | 346 | 1.0 | 1.0 | 0.00 | 0.00 | 0.00 | 99 | 1017.2 |
| 20260508130402 | 64 | 280 | 0.0 | 0.0 | 0.00 | 0.00 | 0.00 | 99 | 1016.7 |
| 20260508125858 | 64 | 292 | 0.0 | 1.0 | 0.00 | 0.00 | 0.00 | 99 | 1016.9 |
| 20260508125354 | 64 | 218 | 1.0 | 1.0 | 0.00 | 0.00 | 0.00 | 99 | 1016.9 |
| 20260508124852 | 64 | 210 | 0.0 | 1.0 | 0.00 | 0.00 | 0.00 | 99 | 1016.9 |
| 20260508124349 | 64 | 336 | 0.0 | 0.0 | 0.00 | 0.00 | 0.00 | 99 | 1016.8 |
| 20260508123847 | 64 | 273 | 0.0 | 0.0 | 0.00 | 0.00 | 0.00 | 99 | 1017.2 |
| 20260508123346 | 64 | 275 | 1.0 | 1.0 | 0.00 | 0.00 | 0.00 | 99 | 1017.1 |
| 20260508122842 | 64 | 337 | 0.0 | 0.0 | 0.00 | 0.00 | 0.00 | 99 | 1017.2 |
| 20260508122338 | 64 | 307 | 0.0 | 1.0 | 0.00 | 0.00 | 0.00 | 99 | 1017.1 |
| 20260508121836 | 63 | 322 | 0.0 | 0.0 | 0.00 | 0.00 | 0.00 | 99 | 1017.3 |
| 20260508121334 | 63 | 322 | 0.0 | 1.0 | 0.00 | 0.00 | 0.00 | 99 | 1017.3 |
| 20260508120831 | 63 | 304 | 0.0 | 0.0 | 0.00 | 0.00 | 0.00 | 99 | 1017.3 |
| 20260508120329 | 63 | 332 | 1.0 | 1.0 | 0.00 | 0.00 | 0.00 | 99 | 1017.5 |
| 20260508115826 | 63 | 349 | 0.0 | 0.0 | 0.00 | 0.00 | 0.00 | 99 | 1017.4 |
| 20260508115324 | 63 | 349 | 0.0 | 0.0 | 0.00 | 0.00 | 0.00 | 99 | 1017.1 |
| 20260508114820 | 63 | 344 | 1.0 | 2.0 | 0.00 | 0.00 | 0.00 | 99 | 1017.1 |
| 20260508114317 | 63 | 328 | 1.0 | 2.0 | 0.00 | 0.00 | 0.00 | 99 | 1017.1 |
| 20260508113814 | 63 | 289 | 0.0 | 1.0 | 0.00 | 0.00 | 0.00 | 99 | 1016.9 |
| 20260508113312 | 63 | 311 | 0.0 | 0.0 | 0.00 | 0.00 | 0.00 | 99 | 1016.7 |
| 20260508112808 | 63 | 327 | 3.0 | 3.0 | 0.00 | 0.00 | 0.00 | 99 | 1016.9 |
| 20260508112307 | 63 | 332 | 1.0 | 1.0 | 0.00 | 0.00 | 0.00 | 99 | 1016.9 |
| 20260508111801 | 63 | 4 | 0.0 | 0.0 | 0.00 | 0.00 | 0.00 | 99 | 1017.1 |
| 20260508111259 | 63 | 4 | 0.0 | 1.0 | 0.00 | 0.00 | 0.00 | 99 | 1017.3 |
| 20260508110756 | 63 | 346 | 2.0 | 2.0 | 0.00 | 0.00 | 0.00 | 99 | 1016.8 |
| 20260508110254 | 63 | 349 | 1.0 | 2.0 | 0.00 | 0.00 | 0.00 | 99 | 1016.8 |
| 20260508105753 | 63 | 346 | 3.0 | 3.0 | 0.00 | 0.00 | 0.00 | 99 | 1016.7 |
| 20260508105250 | 63 | 17 | 2.0 | 2.0 | 0.00 | 0.00 | 0.00 | 99 | 1016.6 |
| 20260508104747 | 63 | 342 | 3.0 | 3.0 | 0.00 | 0.00 | 0.00 | 99 | 1016.4 |
| 20260508104244 | 63 | 312 | 2.0 | 2.0 | 0.00 | 0.00 | 0.00 | 99 | 1016.5 |
| 20260508103742 | 63 | 352 | 2.0 | 2.0 | 0.00 | 0.00 | 0.00 | 99 | 1016.3 |
| 20260508103238 | 63 | 323 | 1.0 | 1.0 | 0.00 | 0.00 | 0.00 | 99 | 1016.3 |
| 20260508102735 | 63 | 343 | 2.0 | 2.0 | 0.00 | 0.00 | 0.00 | 99 | 1015.8 |
| 20260508102234 | 63 | 306 | 4.0 | 6.0 | 0.00 | 0.00 | 0.00 | 99 | 1015.3 |
| 20260508101730 | 63 | 303 | 0.0 | 0.0 | 0.00 | 0.00 | 0.00 | 99 | 1015.3 |
| 20260508101228 | 63 | 281 | 0.0 | 0.0 | 0.00 | 0.00 | 0.00 | 99 | 1015.4 |
| 20260508100726 | 63 | 295 | 0.0 | 1.0 | 0.00 | 0.00 | 0.00 | 99 | 1015.5 |
| 20260508100224 | 63 | 323 | 0.0 | 0.0 | 0.00 | 0.00 | 0.00 | 99 | 1015.8 |
| 20260508095719 | 63 | 327 | 1.0 | 1.0 | 0.00 | 0.00 | 0.00 | 99 | 1016.0 |
| 20260508095217 | 63 | 323 | 0.0 | 0.0 | 0.00 | 0.00 | 0.00 | 99 | 1015.7 |
| 20260508094714 | 62 | 312 | 1.0 | 2.0 | 0.00 | 0.00 | 0.00 | 99 | 1015.7 |
| 20260508094211 | 63 | 356 | 1.0 | 1.0 | 0.00 | 0.00 | 0.00 | 99 | 1015.7 |
| 20260508093707 | 62 | 328 | 2.0 | 2.0 | 0.00 | 0.00 | 0.00 | 99 | 1015.9 |
| 20260508093206 | 63 | 332 | 3.0 | 5.0 | 0.00 | 0.00 | 0.00 | 99 | 1015.9 |
| 20260508092702 | 63 | 339 | 1.0 | 1.0 | 0.00 | 0.00 | 0.00 | 99 | 1015.6 |
| 20260508092201 | 63 | 339 | 0.0 | 0.0 | 0.00 | 0.00 | 0.00 | 99 | 1015.9 |
| 20260508091658 | 62 | 330 | 1.0 | 1.0 | 0.00 | 0.00 | 0.00 | 99 | 1015.8 |
| 20260508091155 | 63 | 334 | 1.0 | 1.0 | 0.00 | 0.00 | 0.00 | 99 | 1015.7 |
| 20260508090653 | 62 | 317 | 0.0 | 0.0 | 0.00 | 0.00 | 0.00 | 99 | 1015.6 |
| 20260508090150 | 62 | 317 | 0.0 | 0.0 | 0.00 | 0.00 | 0.00 | 99 | 1015.5 |
| 20260508085645 | 62 | 316 | 0.0 | 0.0 | 0.00 | 0.00 | 0.00 | 99 | 1015.6 |
| 20260508085143 | 62 | 316 | 0.0 | 0.0 | 0.00 | 0.00 | 0.00 | 99 | 1015.5 |
| 20260508084639 | 62 | 316 | 0.0 | 0.0 | 0.00 | 0.00 | 0.00 | 99 | 1015.6 |
| 20260508084136 | 62 | 308 | 0.0 | 0.0 | 0.00 | 0.00 | 0.00 | 99 | 1015.7 |
| 20260508083634 | 62 | 328 | 1.0 | 1.0 | 0.00 | 0.00 | 0.00 | 99 | 1016.0 |
| 20260508083132 | 62 | 328 | 0.0 | 1.0 | 0.00 | 0.00 | 0.00 | 99 | 1016.0 |
| 20260508082626 | 62 | 342 | 0.0 | 1.0 | 0.00 | 0.00 | 0.00 | 99 | 1016.3 |
| 20260508082124 | 62 | 321 | 1.0 | 1.0 | 0.00 | 0.00 | 0.00 | 99 | 1016.0 |
| 20260508081621 | 62 | 335 | 2.0 | 2.0 | 0.00 | 0.00 | 0.00 | 99 | 1015.7 |
| 20260508081118 | 62 | 334 | 1.0 | 1.0 | 0.00 | 0.00 | 0.00 | 99 | 1016.0 |
| 20260508080615 | 62 | 335 | 1.0 | 1.0 | 0.00 | 0.00 | 0.00 | 99 | 1015.7 |
| 20260508080113 | 62 | 335 | 0.0 | 1.0 | 0.00 | 0.00 | 0.00 | 99 | 1015.6 |
| 20260508075609 | 62 | 335 | 0.0 | 0.0 | 0.00 | 0.00 | 0.00 | 99 | 1015.6 |
| 20260508075106 | 62 | 335 | 0.0 | 0.0 | 0.00 | 0.00 | 0.00 | 99 | 1015.4 |
| 20260508074604 | 62 | 335 | 0.0 | 0.0 | 0.00 | 0.00 | 0.00 | 99 | 1015.6 |
| 20260508074101 | 62 | 335 | 0.0 | 1.0 | 0.00 | 0.00 | 0.00 | 99 | 1015.7 |
| 20260508073558 | 63 | 335 | 0.0 | 0.0 | 0.00 | 0.00 | 0.00 | 99 | 1015.6 |
| 20260508073056 | 62 | 335 | 0.0 | 0.0 | 0.00 | 0.00 | 0.00 | 99 | 1015.7 |
| 20260508072551 | 63 | 339 | 0.0 | 0.0 | 0.00 | 0.00 | 0.00 | 99 | 1015.5 |
| 20260508072048 | 62 | 340 | 0.0 | 0.0 | 0.00 | 0.00 | 0.00 | 99 | 1015.5 |
| 20260508071547 | 63 | 344 | 1.0 | 1.0 | 0.00 | 0.00 | 0.00 | 99 | 1015.5 |
| 20260508071044 | 63 | 305 | 0.0 | 0.0 | 0.00 | 0.00 | 0.00 | 99 | 1016.0 |
| 20260508070542 | 63 | 325 | 2.0 | 2.0 | 0.00 | 0.00 | 0.00 | 99 | 1015.6 |
| 20260508070040 | 63 | 297 | 2.0 | 2.0 | 0.00 | 0.00 | 0.00 | 99 | 1015.8 |
| 20260508065537 | 63 | 334 | 1.0 | 1.0 | 0.00 | 0.00 | 0.00 | 99 | 1015.9 |
| 20260508065035 | 63 | 328 | 1.0 | 1.0 | 0.00 | 0.00 | 0.00 | 99 | 1015.8 |
| 20260508064532 | 63 | 328 | 0.0 | 0.0 | 0.00 | 0.00 | 0.00 | 99 | 1016.0 |
| 20260508064030 | 63 | 328 | 1.0 | 1.0 | 0.00 | 0.00 | 0.00 | 99 | 1016.1 |
| 20260508063527 | 63 | 330 | 2.0 | 2.0 | 0.00 | 0.00 | 0.00 | 99 | 1016.3 |
| 20260508063025 | 63 | 328 | 0.0 | 0.0 | 0.00 | 0.00 | 0.00 | 99 | 1016.3 |
| 20260508062522 | 63 | 328 | 1.0 | 2.0 | 0.00 | 0.00 | 0.00 | 99 | 1016.5 |
| 20260508062019 | 63 | 328 | 1.0 | 1.0 | 0.00 | 0.00 | 0.00 | 99 | 1016.5 |
| 20260508061517 | 63 | 326 | 1.0 | 1.0 | 0.00 | 0.00 | 0.00 | 99 | 1016.2 |
| 20260508061013 | 63 | 328 | 0.0 | 0.0 | 0.00 | 0.00 | 0.00 | 99 | 1016.1 |
| 20260508060511 | 63 | 329 | 0.0 | 0.0 | 0.00 | 0.00 | 0.00 | 99 | 1016.2 |
| 20260508060008 | 63 | 328 | 0.0 | 0.0 | 0.00 | 0.00 | 0.00 | 99 | 1016.4 |
| 20260508055504 | 63 | 328 | 0.0 | 0.0 | 0.00 | 0.00 | 0.00 | 99 | 1016.3 |
| 20260508055000 | 63 | 329 | 0.0 | 0.0 | 0.00 | 0.00 | 0.00 | 99 | 1016.3 |
| 20260508054457 | 63 | 329 | 0.0 | 0.0 | 0.00 | 0.00 | 0.00 | 99 | 1016.3 |
| 20260508053954 | 63 | 329 | 0.0 | 0.0 | 0.00 | 0.00 | 0.00 | 99 | 1016.5 |
| 20260508053451 | 63 | 329 | 0.0 | 1.0 | 0.00 | 0.00 | 0.00 | 99 | 1016.8 |
| 20260508052949 | 63 | 323 | 1.0 | 2.0 | 0.00 | 0.00 | 0.00 | 99 | 1016.6 |
| 20260508052446 | 63 | 323 | 0.0 | 1.0 | 0.00 | 0.00 | 0.00 | 99 | 1016.8 |
| 20260508051942 | 63 | 323 | 0.0 | 0.0 | 0.00 | 0.00 | 0.00 | 99 | 1016.8 |
| 20260508051438 | 63 | 339 | 0.0 | 0.0 | 0.00 | 0.00 | 0.00 | 99 | 1016.1 |
| 20260508050934 | 63 | 339 | 0.0 | 1.0 | 0.00 | 0.00 | 0.00 | 99 | 1016.6 |
| 20260508050431 | 63 | 327 | 1.0 | 1.0 | 0.00 | 0.00 | 0.00 | 99 | 1016.4 |
| 20260508045928 | 63 | 306 | 0.0 | 0.0 | 0.00 | 0.83 | 0.83 | 99 | 1016.3 |
| 20260508045425 | 63 | 306 | 1.0 | 1.0 | 0.00 | 0.83 | 0.83 | 99 | 1016.2 |
| 20260508044922 | 64 | 306 | 0.0 | 0.0 | 0.00 | 0.83 | 0.83 | 99 | 1016.3 |
| 20260508044419 | 64 | 324 | 1.0 | 1.0 | 0.00 | 0.83 | 0.83 | 99 | 1016.6 |
| 20260508043914 | 64 | 311 | 0.0 | 0.0 | 0.00 | 0.83 | 0.83 | 99 | 1016.4 |
| 20260508043412 | 64 | 357 | 1.0 | 2.0 | 0.00 | 0.83 | 0.83 | 99 | 1016.4 |
| 20260508042908 | 64 | 354 | 1.0 | 1.0 | 0.00 | 0.83 | 0.83 | 99 | 1016.7 |
| 20260508042406 | 64 | 352 | 2.0 | 2.0 | 0.00 | 0.83 | 0.83 | 99 | 1016.7 |
| 20260508041903 | 64 | 321 | 1.0 | 1.0 | 0.00 | 0.83 | 0.83 | 99 | 1016.7 |
| 20260508041400 | 64 | 320 | 0.0 | 0.0 | 0.00 | 0.83 | 0.83 | 99 | 1016.7 |
| 20260508040856 | 65 | 319 | 0.0 | 0.0 | 0.00 | 0.83 | 0.83 | 99 | 1016.8 |
| 20260508040353 | 65 | 356 | 2.0 | 2.0 | 0.00 | 0.83 | 0.83 | 99 | 1017.3 |
| 20260508035851 | 65 | 350 | 1.0 | 1.0 | 0.00 | 0.83 | 0.83 | 99 | 1017.0 |
| 20260508035348 | 65 | 332 | 1.0 | 1.0 | 0.00 | 0.83 | 0.83 | 99 | 1016.6 |
| 20260508034845 | 65 | 338 | 2.0 | 2.0 | 0.00 | 0.83 | 0.83 | 99 | 1016.8 |
| 20260508034342 | 65 | 330 | 2.0 | 2.0 | 0.00 | 0.83 | 0.83 | 99 | 1017.2 |
| 20260508033838 | 65 | 331 | 2.0 | 2.0 | 0.00 | 0.83 | 0.83 | 99 | 1016.7 |
| 20260508033337 | 65 | 334 | 2.0 | 2.0 | 0.00 | 0.83 | 0.83 | 99 | 1016.9 |
| 20260508032834 | 65 | 352 | 3.0 | 3.0 | 0.00 | 0.83 | 0.83 | 99 | 1016.8 |
| 20260508032331 | 65 | 343 | 1.0 | 2.0 | 0.00 | 0.83 | 0.83 | 99 | 1017.0 |
| 20260508031828 | 66 | 348 | 1.0 | 2.0 | 0.00 | 0.83 | 0.83 | 99 | 1017.1 |
| 20260508031324 | 66 | 337 | 1.0 | 1.0 | 0.00 | 0.83 | 0.83 | 99 | 1016.8 |
| 20260508030821 | 66 | 330 | 2.0 | 2.0 | 0.00 | 0.83 | 0.83 | 99 | 1016.9 |
| 20260508030318 | 66 | 329 | 1.0 | 1.0 | 0.00 | 0.83 | 0.83 | 99 | 1017.0 |
| 20260508025814 | 66 | 346 | 0.0 | 1.0 | 0.00 | 0.83 | 0.83 | 99 | 1016.8 |
| 20260508025312 | 66 | 326 | 0.0 | 0.0 | 0.00 | 0.83 | 0.83 | 99 | 1016.5 |
| 20260508024808 | 66 | 323 | 1.0 | 1.0 | 0.00 | 0.83 | 0.83 | 99 | 1016.5 |
| 20260508024305 | 66 | 323 | 1.0 | 1.0 | 0.00 | 0.83 | 0.83 | 99 | 1016.8 |
| 20260508023802 | 66 | 321 | 1.0 | 1.0 | 0.00 | 0.83 | 0.83 | 99 | 1016.8 |
| 20260508023259 | 66 | 314 | 1.0 | 1.0 | 0.00 | 0.83 | 0.83 | 99 | 1016.7 |
| 20260508022755 | 67 | 308 | 0.0 | 0.0 | 0.00 | 0.83 | 0.83 | 99 | 1016.5 |
| 20260508022251 | 67 | 350 | 0.0 | 0.0 | 0.00 | 0.83 | 0.83 | 99 | 1016.5 |
| 20260508021749 | 67 | 312 | 1.0 | 2.0 | 0.00 | 0.83 | 0.83 | 99 | 1016.9 |
| 20260508021243 | 67 | 346 | 2.0 | 2.0 | 0.00 | 0.83 | 0.83 | 99 | 1016.6 |
| 20260508020741 | 67 | 321 | 1.0 | 2.0 | 0.00 | 0.83 | 0.83 | 99 | 1016.5 |
| 20260508020238 | 67 | 357 | 2.0 | 2.0 | 0.00 | 0.83 | 0.83 | 99 | 1016.7 |
| 20260508015735 | 67 | 350 | 1.0 | 1.0 | 0.00 | 0.83 | 0.83 | 99 | 1016.6 |
| 20260508015232 | 68 | 322 | 2.0 | 2.0 | 0.00 | 0.83 | 0.83 | 99 | 1016.4 |
| 20260508014729 | 68 | 340 | 1.0 | 1.0 | 0.00 | 0.83 | 0.83 | 98 | 1016.2 |
| 20260508014226 | 68 | 327 | 2.0 | 3.0 | 0.00 | 0.83 | 0.83 | 98 | 1016.3 |
| 20260508013722 | 68 | 341 | 4.0 | 5.0 | 0.00 | 0.83 | 0.83 | 99 | 1016.3 |
| 20260508013218 | 68 | 355 | 2.0 | 3.0 | 0.00 | 0.83 | 0.83 | 99 | 1016.2 |
| 20260508012716 | 68 | 333 | 1.0 | 1.0 | 0.00 | 0.83 | 0.83 | 98 | 1015.8 |
| 20260508012213 | 68 | 8 | 4.0 | 5.0 | 0.00 | 0.83 | 0.83 | 98 | 1015.9 |
| 20260508011711 | 68 | 319 | 1.0 | 1.0 | 0.00 | 0.83 | 0.83 | 98 | 1015.9 |
| 20260508011209 | 68 | 320 | 2.0 | 2.0 | 0.00 | 0.83 | 0.83 | 98 | 1015.7 |
| 20260508010705 | 68 | 333 | 0.0 | 0.0 | 0.00 | 0.83 | 0.83 | 98 | 1015.5 |
| 20260508010203 | 68 | 338 | 1.0 | 1.0 | 0.00 | 0.83 | 0.83 | 97 | 1015.6 |
| 20260508005700 | 69 | 354 | 0.0 | 1.0 | 0.00 | 0.83 | 0.83 | 97 | 1015.3 |
| 20260508005156 | 69 | 336 | 1.0 | 1.0 | 0.00 | 0.83 | 0.83 | 97 | 1015.4 |
| 20260508004652 | 69 | 325 | 1.0 | 1.0 | 0.00 | 0.83 | 0.83 | 96 | 1015.3 |
| 20260508004149 | 69 | 333 | 1.0 | 1.0 | 0.00 | 0.83 | 0.83 | 96 | 1015.4 |
| 20260508003646 | 70 | 3 | 2.0 | 3.0 | 0.00 | 0.83 | 0.83 | 95 | 1015.3 |
| 20260508003143 | 70 | 338 | 3.0 | 3.0 | 0.00 | 0.83 | 0.83 | 95 | 1015.5 |
| 20260508002639 | 70 | 333 | 5.0 | 7.0 | 0.00 | 0.83 | 0.83 | 95 | 1015.3 |
| 20260508002137 | 70 | 34 | 5.0 | 6.0 | 0.00 | 0.83 | 0.83 | 95 | 1015.2 |
| 20260508001632 | 71 | 3 | 1.0 | 2.0 | 0.00 | 0.83 | 0.83 | 95 | 1015.2 |
| 20260508001128 | 71 | 346 | 1.0 | 2.0 | 0.00 | 0.83 | 0.83 | 94 | 1015.4 |
| 20260508000624 | 71 | 332 | 2.0 | 2.0 | 0.00 | 0.83 | 0.83 | 94 | 1015.2 |
| 20260508000122 | 71 | 315 | 3.0 | 5.0 | 0.00 | 0.83 | 0.83 | 94 | 1015.0 |
| 20260507235619 | 72 | 337 | 5.0 | 6.0 | 0.00 | 0.83 | 0.83 | 94 | 1015.2 |
| 20260507235116 | 72 | 327 | 6.0 | 8.0 | 0.00 | 0.83 | 0.83 | 94 | 1015.3 |
| 20260507234612 | 72 | 334 | 5.0 | 7.0 | 0.00 | 0.83 | 0.83 | 94 | 1014.9 |
| 20260507234109 | 72 | 306 | 3.0 | 3.0 | 0.00 | 0.83 | 0.83 | 93 | 1015.1 |
| 20260507233606 | 73 | 327 | 4.0 | 5.0 | 0.00 | 0.83 | 0.83 | 93 | 1015.1 |
| 20260507233104 | 72 | 4 | 2.0 | 5.0 | 0.00 | 0.83 | 0.83 | 93 | 1015.0 |
| 20260507232600 | 73 | 351 | 1.0 | 2.0 | 0.00 | 0.83 | 0.83 | 93 | 1015.2 |
| 20260507232058 | 73 | 337 | 1.0 | 1.0 | 0.00 | 0.83 | 0.83 | 94 | 1015.4 |
| 20260507231554 | 73 | 358 | 3.0 | 3.0 | 0.00 | 0.83 | 0.83 | 93 | 1015.3 |
| 20260507231051 | 73 | 21 | 3.0 | 3.0 | 0.00 | 0.83 | 0.83 | 92 | 1015.4 |
| 20260507230548 | 73 | 320 | 1.0 | 2.0 | 0.00 | 0.83 | 0.83 | 92 | 1015.3 |
| 20260507230044 | 73 | 358 | 1.0 | 2.0 | 0.00 | 0.83 | 0.83 | 93 | 1015.3 |
| 20260507225539 | 73 | 335 | 5.0 | 7.0 | 0.00 | 0.83 | 0.83 | 93 | 1015.4 |
| 20260507225036 | 73 | 359 | 5.0 | 7.0 | 0.00 | 0.83 | 0.83 | 92 | 1015.1 |
| 20260507224532 | 73 | 353 | 4.0 | 6.0 | 0.00 | 0.83 | 0.83 | 92 | 1015.0 |
| 20260507224028 | 73 | 354 | 2.0 | 3.0 | 0.00 | 0.83 | 0.83 | 92 | 1015.1 |
| 20260507223525 | 73 | 346 | 2.0 | 2.0 | 0.00 | 0.83 | 0.83 | 92 | 1015.3 |
| 20260507223022 | 73 | 327 | 4.0 | 6.0 | 0.00 | 0.83 | 0.83 | 91 | 1015.0 |
| 20260507222519 | 74 | 325 | 1.0 | 1.0 | 0.00 | 0.83 | 0.83 | 92 | 1015.1 |
| 20260507222015 | 73 | 343 | 6.0 | 7.0 | 0.00 | 0.83 | 0.83 | 92 | 1015.1 |
| 20260507221512 | 73 | 339 | 1.0 | 1.0 | 0.00 | 0.83 | 0.83 | 92 | 1015.0 |
| 20260507221009 | 73 | 343 | 1.0 | 1.0 | 0.00 | 0.83 | 0.83 | 91 | 1015.1 |
| 20260507220506 | 74 | 357 | 2.0 | 3.0 | 0.00 | 0.83 | 0.83 | 92 | 1015.0 |
| 20260507220003 | 73 | 328 | 3.0 | 3.0 | 0.00 | 0.83 | 0.83 | 92 | 1014.9 |
| 20260507215459 | 73 | 333 | 6.0 | 8.0 | 0.00 | 0.83 | 0.83 | 92 | 1014.7 |
| 20260507214957 | 73 | 331 | 4.0 | 5.0 | 0.00 | 0.83 | 0.83 | 91 | 1014.9 |
| 20260507214454 | 74 | 327 | 1.0 | 1.0 | 0.00 | 0.83 | 0.83 | 91 | 1014.7 |
| 20260507213949 | 73 | 305 | 1.0 | 1.0 | 0.00 | 0.83 | 0.83 | 92 | 1014.8 |
| 20260507213446 | 74 | 328 | 0.0 | 0.0 | 0.00 | 0.83 | 0.83 | 92 | 1014.8 |
| 20260507212943 | 74 | 339 | 2.0 | 2.0 | 0.00 | 0.83 | 0.83 | 91 | 1014.9 |
| 20260507212438 | 75 | 319 | 1.0 | 1.0 | 0.00 | 0.83 | 0.83 | 92 | 1015.0 |
| 20260507211936 | 74 | 342 | 1.0 | 1.0 | 0.00 | 0.83 | 0.83 | 90 | 1014.7 |
| 20260507211432 | 74 | 334 | 2.0 | 2.0 | 0.00 | 0.83 | 0.83 | 91 | 1014.7 |
| 20260507210929 | 74 | 17 | 2.0 | 2.0 | 0.00 | 0.83 | 0.83 | 91 | 1015.0 |
| 20260507210426 | 73 | 320 | 5.0 | 7.0 | 0.00 | 0.83 | 0.83 | 91 | 1015.0 |
| 20260507205923 | 74 | 180 | 3.0 | 3.0 | 0.00 | 0.83 | 0.83 | 91 | 1014.9 |
| 20260507205420 | 74 | 323 | 1.0 | 2.0 | 0.00 | 0.83 | 0.83 | 91 | 1014.9 |
| 20260507204916 | 74 | 359 | 3.0 | 3.0 | 0.00 | 0.83 | 0.83 | 91 | 1015.1 |
| 20260507204413 | 74 | 13 | 3.0 | 5.0 | 0.00 | 0.83 | 0.83 | 91 | 1015.1 |
| 20260507203910 | 74 | 337 | 4.0 | 5.0 | 0.00 | 0.83 | 0.83 | 91 | 1015.1 |
| 20260507203408 | 75 | 355 | 3.0 | 5.0 | 0.00 | 0.83 | 0.83 | 91 | 1014.8 |
| 20260507202904 | 75 | 317 | 2.0 | 2.0 | 0.00 | 0.83 | 0.83 | 91 | 1015.0 |
| 20260507202401 | 75 | 331 | 2.0 | 2.0 | 0.00 | 0.83 | 0.83 | 91 | 1014.8 |
| 20260507201856 | 75 | 326 | 2.0 | 2.0 | 0.00 | 0.83 | 0.83 | 91 | 1015.2 |
| 20260507201352 | 75 | 41 | 3.0 | 3.0 | 0.00 | 0.83 | 0.83 | 90 | 1015.1 |
| 20260507200849 | 75 | 355 | 2.0 | 2.0 | 0.00 | 0.83 | 0.83 | 90 | 1015.1 |
| 20260507200345 | 74 | 331 | 1.0 | 1.0 | 0.00 | 0.83 | 0.83 | 92 | 1015.1 |
| 20260507195841 | 75 | 355 | 3.0 | 5.0 | 0.00 | 0.83 | 0.83 | 92 | 1014.9 |
| 20260507195338 | 75 | 331 | 2.0 | 2.0 | 0.00 | 0.83 | 0.83 | 91 | 1015.1 |
| 20260507194835 | 75 | 19 | 2.0 | 3.0 | 0.00 | 0.83 | 0.83 | 90 | 1015.0 |
| 20260507194332 | 76 | 6 | 2.0 | 2.0 | 0.00 | 0.83 | 0.83 | 90 | 1014.8 |
| 20260507193828 | 76 | 291 | 1.0 | 1.0 | 0.00 | 0.83 | 0.83 | 89 | 1014.8 |
| 20260507193326 | 75 | 357 | 3.0 | 3.0 | 0.00 | 0.83 | 0.83 | 90 | 1014.8 |
| 20260507192821 | 75 | 281 | 2.0 | 3.0 | 0.00 | 0.83 | 0.83 | 91 | 1015.1 |
| 20260507192318 | 75 | 5 | 1.0 | 2.0 | 0.00 | 0.83 | 0.83 | 91 | 1015.1 |
| 20260507191814 | 75 | 346 | 1.0 | 2.0 | 0.00 | 0.83 | 0.83 | 92 | 1015.0 |
| 20260507191311 | 76 | 305 | 1.0 | 2.0 | 0.00 | 0.83 | 0.83 | 91 | 1015.0 |
| 20260507190808 | 75 | 332 | 3.0 | 5.0 | 0.00 | 0.83 | 0.83 | 91 | 1015.2 |
| 20260507190306 | 75 | 348 | 2.0 | 3.0 | 0.00 | 0.83 | 0.83 | 92 | 1015.2 |
| 20260507185805 | 75 | 331 | 2.0 | 2.0 | 0.00 | 0.83 | 0.83 | 92 | 1015.3 |
| 20260507185301 | 75 | 311 | 2.0 | 2.0 | 0.00 | 0.83 | 0.83 | 92 | 1015.2 |
| 20260507184758 | 75 | 42 | 1.0 | 1.0 | 0.00 | 0.83 | 0.83 | 94 | 1015.0 |
| 20260507184257 | 75 | 352 | 0.0 | 1.0 | 0.00 | 0.83 | 0.83 | 92 | 1015.0 |
| 20260507183753 | 75 | 342 | 1.0 | 1.0 | 0.00 | 0.83 | 0.83 | 92 | 1015.2 |
| 20260507183250 | 74 | 331 | 1.0 | 2.0 | 0.00 | 0.83 | 0.83 | 93 | 1015.3 |
| 20260507182747 | 74 | 345 | 2.0 | 3.0 | 0.00 | 0.83 | 0.83 | 93 | 1015.6 |
| 20260507182242 | 73 | 328 | 3.0 | 5.0 | 0.00 | 0.83 | 0.83 | 94 | 1015.7 |
| 20260507181739 | 73 | 341 | 4.0 | 6.0 | 0.00 | 0.83 | 0.83 | 94 | 1015.5 |
| 20260507181236 | 74 | 0 | 3.0 | 5.0 | 0.00 | 0.83 | 0.83 | 95 | 1015.7 |
| 20260507180732 | 73 | 297 | 4.0 | 6.0 | 0.00 | 0.83 | 0.83 | 95 | 1015.5 |
| 20260507180229 | 73 | 285 | 0.0 | 0.0 | 0.00 | 0.83 | 0.83 | 98 | 1015.6 |
| 20260507175724 | 71 | 324 | 1.0 | 1.0 | 0.00 | 0.83 | 0.83 | 99 | 1015.5 |
| 20260507175222 | 70 | 318 | 0.0 | 1.0 | 0.00 | 0.83 | 0.83 | 99 | 1015.4 |
| 20260507174720 | 69 | 335 | 3.0 | 3.0 | 0.00 | 0.83 | 0.83 | 99 | 1015.6 |
| 20260507174217 | 69 | 204 | 0.0 | 1.0 | 0.00 | 0.83 | 0.83 | 99 | 1015.6 |
| 20260507173715 | 69 | 174 | 0.0 | 0.0 | 0.00 | 0.83 | 0.83 | 99 | 1015.8 |
| 20260507173211 | 69 | 291 | 0.0 | 1.0 | 0.00 | 0.83 | 0.83 | 99 | 1015.9 |
| 20260507172708 | 68 | 279 | 1.0 | 1.0 | 0.00 | 0.83 | 0.83 | 99 | 1015.8 |
| 20260507172205 | 68 | 350 | 2.0 | 2.0 | 0.00 | 0.83 | 0.83 | 99 | 1015.9 |
| 20260507171704 | 68 | 332 | 3.0 | 3.0 | 0.00 | 0.83 | 0.83 | 99 | 1015.9 |
| 20260507171202 | 68 | 342 | 3.0 | 6.0 | 0.00 | 0.83 | 0.83 | 99 | 1015.9 |
| 20260507170659 | 68 | 24 | 3.0 | 3.0 | 0.00 | 0.83 | 0.83 | 99 | 1016.1 |
| 20260507170156 | 68 | 4 | 3.0 | 3.0 | 0.00 | 0.83 | 0.83 | 99 | 1016.2 |
| 20260507165652 | 68 | 353 | 3.0 | 3.0 | 0.00 | 0.83 | 0.83 | 99 | 1016.4 |
| 20260507165148 | 68 | 316 | 3.0 | 3.0 | 0.00 | 0.83 | 0.83 | 99 | 1016.3 |
| 20260507164644 | 69 | 325 | 0.0 | 0.0 | 0.00 | 0.83 | 0.83 | 99 | 1016.3 |
| 20260507164141 | 68 | 347 | 1.0 | 1.0 | 0.00 | 0.83 | 0.83 | 99 | 1016.5 |
| 20260507163638 | 68 | 18 | 1.0 | 2.0 | 0.00 | 0.83 | 0.83 | 99 | 1016.5 |
| 20260507163137 | 68 | 342 | 3.0 | 5.0 | 0.00 | 0.83 | 0.83 | 99 | 1016.4 |
| 20260507162632 | 68 | 317 | 4.0 | 5.0 | 0.00 | 0.83 | 0.83 | 99 | 1016.6 |
| 20260507162128 | 68 | 356 | 3.0 | 5.0 | 0.00 | 0.83 | 0.83 | 99 | 1016.6 |
| 20260507161625 | 68 | 337 | 2.0 | 2.0 | 0.00 | 0.83 | 0.83 | 99 | 1016.5 |
| 20260507161121 | 68 | 25 | 1.0 | 2.0 | 0.00 | 0.83 | 0.83 | 99 | 1016.4 |
| 20260507160618 | 69 | 331 | 3.0 | 6.0 | 0.00 | 0.83 | 0.83 | 99 | 1016.2 |
| 20260507160114 | 69 | 325 | 1.0 | 2.0 | 0.00 | 0.83 | 0.83 | 99 | 1016.2 |
| 20260507155609 | 69 | 349 | 3.0 | 5.0 | 0.00 | 0.83 | 0.83 | 99 | 1016.0 |
| 20260507155107 | 68 | 345 | 2.0 | 2.0 | 0.00 | 0.83 | 0.83 | 99 | 1015.9 |
| 20260507154604 | 68 | 20 | 1.0 | 2.0 | 0.00 | 0.83 | 0.83 | 99 | 1015.8 |
| 20260507154101 | 69 | 355 | 3.0 | 3.0 | 0.00 | 0.83 | 0.83 | 99 | 1015.9 |
| 20260507153557 | 68 | 353 | 0.0 | 1.0 | 0.07 | 0.83 | 0.83 | 99 | 1015.9 |
| 20260507153054 | 68 | 345 | 1.0 | 1.0 | 0.07 | 0.83 | 0.83 | 99 | 1015.9 |
| 20260507152550 | 68 | 324 | 3.0 | 3.0 | 0.00 | 0.82 | 0.82 | 99 | 1016.0 |
| 20260507152046 | 68 | 12 | 1.0 | 1.0 | 0.00 | 0.82 | 0.82 | 99 | 1016.0 |
| 20260507151542 | 68 | 19 | 3.0 | 5.0 | 0.00 | 0.82 | 0.82 | 99 | 1016.1 |
| 20260507151039 | 68 | 348 | 3.0 | 3.0 | 0.00 | 0.82 | 0.82 | 99 | 1016.0 |
| 20260507150537 | 68 | 19 | 3.0 | 5.0 | 0.17 | 0.82 | 0.82 | 99 | 1015.8 |
| 20260507150033 | 68 | 320 | 2.0 | 2.0 | 0.17 | 0.82 | 0.82 | 99 | 1016.1 |
| 20260507145528 | 68 | 328 | 1.0 | 1.0 | 0.07 | 0.79 | 0.79 | 99 | 1015.9 |
| 20260507145026 | 69 | 310 | 3.0 | 5.0 | 0.07 | 0.79 | 0.79 | 99 | 1015.9 |
| 20260507144522 | 69 | 349 | 1.0 | 2.0 | 0.00 | 0.78 | 0.78 | 99 | 1016.0 |
| 20260507144020 | 69 | 353 | 1.0 | 2.0 | 0.00 | 0.78 | 0.78 | 99 | 1015.7 |
| 20260507143517 | 69 | 2 | 3.0 | 5.0 | 0.00 | 0.78 | 0.78 | 99 | 1015.5 |
| 20260507143015 | 69 | 5 | 3.0 | 3.0 | 0.00 | 0.78 | 0.78 | 99 | 1015.5 |
| 20260507142509 | 69 | 351 | 1.0 | 2.0 | 0.00 | 0.78 | 0.78 | 99 | 1015.6 |
| 20260507142007 | 69 | 344 | 3.0 | 3.0 | 0.00 | 0.78 | 0.78 | 99 | 1015.6 |
| 20260507141503 | 69 | 17 | 4.0 | 5.0 | 0.00 | 0.78 | 0.78 | 99 | 1015.4 |